Voltar ao catálogo

ELEKTRO-L 2

AtivoMeteoGEO
NORAD 41105·PAYLOAD·🇷🇺 Russia

Lançado Dec 11, 2015 de Baikonur Cosmodrome

Loading…

TLE

AtualizadoSource: Space-Track

Época: Sep 14, 2026, 06:53 UTC

1 41105U 15074A   26257.28712436 -.00000124  00000-0  00000-0 0  9991
2 41105   6.9127  69.3943 0001700 197.6664 175.0556  1.00272195 39401

Acompanhe ELEKTRO-L 2 em tempo real com AllMySat

Download on the App Store